Location: Columbia, SC
(34.0000°N, 81.0300°W)
Time: 07:54:53
(UTC-05:00)

Tiangong 1 - Visible Passes

Search period start: 10 February 2016 00:00
Search period end: 20 February 2016 00:00
Orbit: 383 x 399 km, 42.8° (Epoch: 10 February)

Date Brightness Start Highest point End Pass type
(mag) Time Alt. Az. Time Alt. Az. Time Alt. Az.
10 Feb 1.4 19:10:37 10° WNW 19:13:51 67° SSW 19:15:34 24° SE visible
11 Feb 3.8 19:50:50 10° W 19:52:52 16° SW 19:53:53 14° SSW visible
12 Feb 3.0 18:52:31 10° W 18:55:24 29° SW 18:58:15 10° SSE visible
14 Feb 4.2 18:34:57 10° WSW 18:36:43 14° SW 18:38:29 10° S visible
